Regional Weather Roundup
Issued by NWS

Home | Current Version | Previous Version | Text Only | Print | Product List | Glossary Off
Versions: 1 2 3 4 5 6 7 8 9 10 11 12 13 14 15 16 17 18 19 20 21 22 23 24 25 26 27 28 29 30 31 32 33 34 35 36 37 38 39 40 41 42 43 44 45 46 47 48 49 50

000
ASUS43 KIND 182009
RWRIN

WEATHER ROUNDUP FOR INDIANA
NATIONAL WEATHER SERVICE INDIANAPOLIS IN
400 PM EDT FRI APR 18 2014

NOTE: "FAIR" INDICATES FEW OR NO CLOUDS BELOW 12,000 FEET WITH NO
SIGNIFICANT WEATHER AND/OR OBSTRUCTIONS TO VISIBILITY.

* - STATION DOES NOT REPORT WEATHER SUCH AS PRECIPITATION OR FOG.

+ - STATION NOT QUALITY CONTROLLED BY THE NATIONAL WEATHER SERVICE.
    USE DATA WITH CAUTION...ESPECIALLY DEWPOINT AND RELATIVE
    HUMIDITY OBSERVATIONS.

INZ001>003-010>013-019-020-182100-
NORTHWEST INDIANA

CITY           SKY/WX    TMP DP  RH WIND       PRES   REMARKS
GARY /AIRPORT/ MOSUNNY   45  36  70 NE9       30.36F
LA PORTE +     SUNNY     53  38  56 N9        30.33S
MICHIGAN CITY+ SUNNY     45  32  61 NW12      30.35S
MONTICELLO +   MOSUNNY   66  41  39 NW14      30.27S
RENSSELAER +   SUNNY     61  36  39 CALM      30.30S
VALPARAISO     SUNNY     53  36  52 N9        30.32F

$$

LMZ046-743>745-182100-
SOUTHERN LAKE MICHIGAN

STATION/POSITION TIME  TEMP WIND        PRES
                       AIR  DIR/SP/G
                 (UTC) (F)  (DEG/KT/KT) (MB)
MICHIGAN CITY    2000   40  350/ 10/ 12   N/A

$$

INZ004-005-014>016-021>024-182100-
NORTH CENTRAL INDIANA

CITY           SKY/WX    TMP DP  RH WIND       PRES   REMARKS
ELKHART        SUNNY     59  36  41 W12G20    30.29F
GOSHEN         SUNNY     64  33  31 NW14      30.27S
LOGANSPORT +   MOSUNNY   64  36  34 W7        30.27F
PERU/GRISSOM   SUNNY     67  42  38 W12G17    30.26F
ROCHESTER +    SUNNY     68  37  32 NW9G18    30.27F
SOUTH BEND     SUNNY     59  39  47 NW14G20   30.32F
WARSAW +       SUNNY     64  37  36 W15G21    30.26F

$$

INZ006>009-017-018-025>027-182100-
NORTHEAST INDIANA

CITY           SKY/WX    TMP DP  RH WIND       PRES   REMARKS
ANGOLA *+      MOSUNNY   64  39  39 NW10      30.25F
AUBURN +       MOSUNNY   66  36  32 W16       30.25F
FORT WAYNE     PTSUNNY   69  39  33 W21       30.26F

$$

INZ028-029-035-036-043>045-051>053-182100-
WEST CENTRAL INDIANA

CITY           SKY/WX    TMP DP  RH WIND       PRES   REMARKS
GREENCASTLE +  MOSUNNY   68  41  37 NW8       30.26F
LAFAYETTE      MOSUNNY   66  39  37 NW10G17   30.27F
TERRE HAUTE    SUNNY     69  42  37 NW6       30.26F

$$

INZ030>032-037>040-046>048-054>057-064-065-182100-
CENTRAL INDIANA

CITY           SKY/WX    TMP DP  RH WIND       PRES   REMARKS
ANDERSON       PTSUNNY   68  36  30 W17       30.26F
CP ATTERBURY + CLOUDY    66  37  34 SE3       30.25F
INDIANAPOLIS   PTSUNNY   68  38  33 W7        30.25F
-EAGLE CREEK   PTSUNNY   68  40  35 NW12      30.25F
KOKOMO *+        N/A     66  43  42 W15       30.27S
MARION +       MOSUNNY   66  36  32 W9G18     30.26F
MT COMFORT *+  SUNNY     68  39  34 CALM      30.25F
SHELBYVILLE    PTSUNNY   70  37  29 CALM      30.24F
ZIONSVILLE +   SUNNY     68  36  31 W6        30.26F

$$

INZ033-034-041-042-049-050-058-059-182100-
EAST CENTRAL INDIANA

CITY           SKY/WX    TMP DP  RH WIND       PRES   REMARKS
MUNCIE         MOSUNNY   66  39  37 NW8       30.25F

$$

INZ060-061-067>069-081>083-085>088-182100-
SOUTHWEST INDIANA

CITY           SKY/WX    TMP DP  RH WIND       PRES   REMARKS
EVANSVILLE     MOSUNNY   72  38  29 N9        30.24F
HUNTINGBURG *+ SUNNY     72  43  35 CALM      30.25F
WASHINGTON +   SUNNY     70  40  33 NE3       30.25F

$$

INZ062-063-066-070>080-084-089>092-182100-
SOUTH CENTRAL AND SOUTHEAST INDIANA

CITY           SKY/WX    TMP DP  RH WIND       PRES   REMARKS
BLOOMINGTON    CLOUDY    68  36  30 NE6       30.24F

$$




USA.gov is the U.S. government's official web portal to all federal, state and local government web resources and services.